CW4114 Weather Reports


Display with metric or nautical units.
time (UTC)temp
F
wind
direction
speed
MPH
gust
MPH
rain 1hr
in
rain 24hr
in
rain mn
in
humidity
%
barometer
mb
20260906062933 58 278 1.0 3.0 0.00 0.00 0.00 91 1017.8
20260906062433 58 276 1.0 3.0 0.00 0.00 0.00 91 1017.8
20260906061932 58 282 1.0 2.0 0.00 0.00 0.00 91 1017.8
20260906061433 58 286 1.0 2.0 0.00 0.00 0.00 90 1017.8
20260906060935 58 279 1.0 2.0 0.00 0.00 0.00 90 1017.7
20260906060432 58 271 2.0 3.0 0.00 0.00 0.00 90 1017.8
20260906055932 58 271 1.0 3.0 0.00 0.00 0.00 89 1017.8
20260906055433 58 267 2.0 3.0 0.00 0.00 0.00 89 1017.8
20260906054932 58 271 2.0 3.0 0.00 0.00 0.00 89 1017.7
20260906054432 58 285 2.0 4.0 0.00 0.00 0.00 89 1017.8
20260906053933 58 267 2.0 4.0 0.00 0.00 0.00 89 1017.7
20260906053159 58 279 2.0 4.0 0.00 0.00 0.00 89 1017.7
20260906052437 58 275 2.0 4.0 0.00 0.00 0.00 89 1017.6
20260906052200 58 267 2.0 4.0 0.00 0.00 0.00 89 1017.6
20260906051659 58 271 1.0 3.0 0.00 0.00 0.00 88 1017.6
20260906050932 58 261 0.0 3.0 0.00 0.00 0.00 88 1017.4
20260906050432 58 276 2.0 3.0 0.00 0.00 0.00 88 1017.4
20260906045932 58 272 2.0 3.0 0.00 0.00 0.00 88 1017.4
20260906045432 58 281 2.0 3.0 0.00 0.00 0.00 87 1017.2
20260906044932 58 283 2.0 3.0 0.00 0.00 0.00 87 1017.4
20260906044435 59 275 1.0 3.0 0.00 0.00 0.00 86 1017.4
20260906044205 59 278 2.0 3.0 0.00 0.00 0.00 86 1017.4
20260906043656 59 278 2.0 3.0 0.00 0.00 0.00 86 1017.3
20260906042932 59 278 2.0 3.0 0.00 0.00 0.00 85 1017.3
20260906042452 60 271 1.0 3.0 0.00 0.00 0.00 85 1017.2
20260906041700 60 283 2.0 4.0 0.00 0.00 0.00 86 1017.4
20260906040429 60 285 2.0 4.0 0.00 0.00 0.00 86 1017.2
20260906035927 60 288 2.0 5.0 0.00 0.00 0.00 86 1017.3
20260906035655 59 279 3.0 5.0 0.00 0.00 0.00 87 1017.2
20260906034928 59 289 2.0 4.0 0.00 0.00 0.00 88 1017.1
20260906034427 59 283 3.0 4.0 0.00 0.00 0.00 88 1017.2
20260906033917 59 272 2.0 4.0 0.00 0.00 0.00 87 1017.0
20260906033414 59 252 2.0 3.0 0.00 0.00 0.00 88 1017.0
20260906032913 59 258 1.0 2.0 0.00 0.00 0.00 87 1017.1
20260906032412 60 230 1.0 2.0 0.00 0.00 0.00 87 1017.0
20260906031913 60 247 1.0 2.0 0.00 0.00 0.00 86 1017.1
20260906031412 60 262 2.0 2.0 0.00 0.00 0.00 86 1016.9
20260906030911 60 275 1.0 2.0 0.00 0.00 0.00 86 1016.9
20260906030636 60 236 0.0 0.0 0.00 0.00 0.00 85 1016.9
20260906025912 60 226 0.0 5.0 0.00 0.00 0.00 85 1016.9
20260906025411 60 9 0.0 5.0 0.00 0.00 0.00 85 1016.9
20260906024912 60 262 0.0 3.0 0.00 0.00 0.00 85 1016.9
20260906024410 60 271 1.0 3.0 0.00 0.00 0.00 85 1016.8
20260906023909 60 283 2.0 3.0 0.00 0.00 0.00 85 1016.8
20260906023409 60 269 2.0 3.0 0.00 0.00 0.00 84 1016.7
20260906022908 61 265 2.0 3.0 0.00 0.00 0.00 84 1016.8
20260906022407 61 223 2.0 4.0 0.00 0.00 0.00 84 1016.7
20260906021907 61 259 1.0 4.0 0.00 0.00 0.00 84 1016.8
20260906021637 61 279 3.0 4.0 0.00 0.00 0.00 85 1016.8
20260906021139 61 281 2.0 4.0 0.00 0.00 0.00 84 1016.7
20260906020408 61 259 2.0 4.0 0.00 0.00 0.00 84 1016.8
20260906015406 61 285 2.0 3.0 0.00 0.00 0.00 84 1016.8
20260906014906 62 247 1.0 3.0 0.00 0.00 0.00 83 1016.8
20260906014406 62 251 2.0 4.0 0.00 0.00 0.00 83 1016.8
20260906013907 62 261 2.0 4.0 0.00 0.00 0.00 84 1016.6
20260906013635 62 281 2.0 4.0 0.00 0.00 0.00 84 1016.7
20260906012903 62 274 2.0 3.0 0.00 0.00 0.00 84 1016.6
20260906012631 62 264 2.0 3.0 0.00 0.00 0.00 83 1016.7
20260906011903 62 271 2.0 3.0 0.00 0.00 0.00 83 1016.6
20260906011404 62 236 1.0 3.0 0.00 0.00 0.00 83 1016.5
20260906011325 63 251 2.0 3.0 0.00 0.00 0.00 82 1016.5
20260906010405 63 274 2.0 3.0 0.00 0.00 0.00 82 1016.5
20260906005904 63 268 2.0 2.0 0.00 0.00 0.00 81 1016.4
20260906005405 64 234 1.0 2.0 0.00 0.00 0.00 80 1016.5
20260906004903 64 252 1.0 2.0 0.00 0.00 0.00 80 1016.5
20260906004402 64 258 0.0 3.0 0.00 0.00 0.00 80 1016.4
20260906004128 65 269 2.0 3.0 0.00 0.00 0.00 79 1016.4
20260906003629 65 271 2.0 3.0 0.00 0.00 0.00 79 1016.5
20260906003130 65 259 2.0 3.0 0.00 0.00 0.00 78 1016.4
20260906002359 65 261 1.0 3.0 0.00 0.00 0.00 77 1016.4
20260906001859 66 278 1.0 2.0 0.00 0.00 0.00 75 1016.3
20260906001359 66 271 1.0 2.0 0.00 0.00 0.00 74 1016.3
20260906000901 67 269 1.0 2.0 0.00 0.00 0.00 73 1016.3
20260906000421 67 269 0.0 1.0 0.00 0.00 0.00 72 1016.2
20260905235856 67 269 0.0 1.0 0.00 0.00 0.00 71 1016.2
20260905235355 68 268 1.0 1.0 0.00 0.00 0.00 70 1016.2
20260905234855 68 76 0.0 0.0 0.00 0.00 0.00 68 1016.2
20260905234622 68 79 0.0 0.0 0.00 0.00 0.00 65 1016.3
20260905233856 69 75 0.0 0.0 0.00 0.00 0.00 64 1016.4
20260905233355 69 75 0.0 0.0 0.00 0.00 0.00 63 1016.5
20260905232853 69 75 0.0 0.0 0.00 0.00 0.00 61 1016.5
20260905232346 69 75 0.0 0.0 0.00 0.00 0.00 61 1016.5
20260905231848 69 75 0.0 0.0 0.00 0.00 0.00 61 1016.5
20260905231344 70 75 0.0 0.0 0.00 0.00 0.00 60 1016.5
20260905230844 70 76 0.0 0.0 0.00 0.00 0.00 58 1016.5
20260905230343 70 76 0.0 0.0 0.00 0.00 0.00 57 1016.5
20260905225842 70 73 0.0 2.0 0.00 0.00 0.00 58 1016.6
20260905225341 70 100 0.0 2.0 0.00 0.00 0.00 60 1016.6
20260905224842 70 104 1.0 2.0 0.00 0.00 0.00 59 1016.5
20260905224342 70 107 1.0 2.0 0.00 0.00 0.00 57 1016.5
20260905223839 70 97 1.0 2.0 0.00 0.00 0.00 58 1016.5
20260905223340 70 72 0.0 1.0 0.00 0.00 0.00 59 1016.5
20260905222840 70 68 0.0 3.0 0.00 0.00 0.00 60 1016.5
20260905222339 70 72 1.0 3.0 0.00 0.00 0.00 59 1016.4
20260905221839 71 42 0.0 2.0 0.00 0.00 0.00 61 1016.5
20260905221338 71 83 0.0 2.0 0.00 0.00 0.00 60 1016.5
20260905220838 71 83 1.0 2.0 0.00 0.00 0.00 61 1016.6
20260905220341 71 73 1.0 2.0 0.00 0.00 0.00 60 1016.5
20260905215840 70 61 1.0 2.0 0.00 0.00 0.00 61 1016.5
20260905215339 70 12 0.0 2.0 0.00 0.00 0.00 59 1016.4
20260905214841 71 59 1.0 3.0 0.00 0.00 0.00 61 1016.4
20260905214339 71 65 1.0 3.0 0.00 0.00 0.00 63 1016.4
20260905213840 71 68 2.0 4.0 0.00 0.00 0.00 63 1016.3
20260905213339 71 65 2.0 4.0 0.00 0.00 0.00 63 1016.3
20260905212840 71 80 2.0 4.0 0.00 0.00 0.00 61 1016.4
20260905212607 71 62 2.0 4.0 0.00 0.00 0.00 61 1016.3
20260905211839 71 54 2.0 4.0 0.00 0.00 0.00 60 1016.4
20260905211338 72 65 2.0 4.0 0.00 0.00 0.00 59 1016.4
20260905210842 72 71 2.0 4.0 0.00 0.00 0.00 59 1016.4
20260905210337 72 78 2.0 4.0 0.00 0.00 0.00 58 1016.4
20260905205838 72 66 2.0 4.0 0.00 0.00 0.00 60 1016.4
20260905205338 72 87 2.0 5.0 0.00 0.00 0.00 60 1016.3
20260905204837 72 79 2.0 5.0 0.00 0.00 0.00 59 1016.3
20260905204336 72 42 2.0 4.0 0.00 0.00 0.00 60 1016.2
20260905203839 72 73 3.0 4.0 0.00 0.00 0.00 61 1016.1
20260905203337 72 65 3.0 4.0 0.00 0.00 0.00 61 1016.2
20260905202838 72 78 2.0 4.0 0.00 0.00 0.00 62 1016.2
20260905202337 72 79 1.0 4.0 0.00 0.00 0.00 66 1016.2
20260905201838 73 89 2.0 4.0 0.00 0.00 0.00 72 1016.1
20260905201337 72 76 3.0 5.0 0.00 0.00 0.00 70 1016.3
20260905200840 72 73 3.0 5.0 0.00 0.00 0.00 70 1016.2
20260905200339 73 76 3.0 5.0 0.00 0.00 0.00 72 1016.3
20260905195838 73 61 2.0 5.0 0.00 0.00 0.00 71 1016.3
20260905195556 72 37 2.0 5.0 0.00 0.00 0.00 72 1016.4
20260905194834 72 54 2.0 5.0 0.00 0.00 0.00 69 1016.5
20260905194610 71 12 3.0 5.0 0.00 0.00 0.00 71 1016.6
20260905193835 71 28 1.0 4.0 0.00 0.00 0.00 74 1016.7
20260905192837 69 48 2.0 4.0 0.00 0.00 0.00 80 1016.9
20260905192602 70 24 2.0 4.0 0.00 0.00 0.00 77 1016.8
20260905191838 71 28 3.0 5.0 0.00 0.00 0.00 78 1016.7
20260905191333 71 21 1.0 5.0 0.00 0.00 0.00 76 1016.8
20260905190835 71 4 2.0 5.0 0.00 0.00 0.00 79 1017.0
20260905190335 71 34 3.0 6.0 0.00 0.00 0.00 81 1017.0
20260905185835 70 40 2.0 6.0 0.00 0.00 0.00 82 1017.1
20260905185331 70 73 3.0 5.0 0.00 0.00 0.00 82 1017.0
20260905185058 70 21 2.0 5.0 0.00 0.00 0.00 80 1017.0
20260905184335 70 86 3.0 5.0 0.00 0.00 0.00 81 1017.2
20260905183832 70 8 3.0 5.0 0.00 0.00 0.00 82 1017.2
20260905183331 70 24 2.0 5.0 0.00 0.00 0.00 81 1017.0
20260905182831 70 344 3.0 6.0 0.00 0.00 0.00 82 1017.0
20260905182331 71 11 4.0 6.0 0.00 0.00 0.00 78 1017.0
20260905182103 71 72 3.0 6.0 0.00 0.00 0.00 80 1017.0
20260905181331 70 21 1.0 6.0 0.00 0.00 0.00 81 1017.0
20260905180830 71 357 3.0 7.0 0.00 0.00 0.00 82 1017.0
20260905180438 71 44 2.0 5.0 0.00 0.00 0.00 80 1017.0
20260905180423 71 34 3.0 7.0 0.00 0.00 0.00 79 1017.0
20260905180110 72 38 2.0 6.0 0.00 0.00 0.00 81 1017.0
20260905174829 71 72 2.0 6.0 0.00 0.00 0.00 79 1017.1
20260905174330 71 71 2.0 6.0 0.00 0.00 0.00 82 1017.1
20260905173830 71 71 4.0 6.0 0.00 0.00 0.00 83 1017.0
20260905173329 70 48 4.0 6.0 0.00 0.00 0.00 82 1017.0
20260905172829 70 82 3.0 6.0 0.00 0.00 0.00 81 1016.9
20260905172329 70 28 4.0 9.0 0.00 0.00 0.00 81 1016.9
20260905171829 69 65 4.0 9.0 0.00 0.00 0.00 82 1016.9
20260905171327 70 78 6.0 9.0 0.00 0.00 0.00 81 1017.0
20260905171058 70 63 6.0 9.0 0.00 0.00 0.00 81 1017.0
20260905170332 71 62 5.0 9.0 0.00 0.00 0.00 81 1016.9
20260905165826 70 51 4.0 9.0 0.00 0.00 0.00 81 1017.0
20260905165324 70 92 6.0 9.0 0.00 0.00 0.00 81 1017.1
20260905164838 70 78 6.0 9.0 0.00 0.00 0.00 81 1017.0
20260905164326 70 62 4.0 7.0 0.00 0.00 0.00 83 1017.1
20260905163825 70 85 4.0 7.0 0.00 0.00 0.00 81 1017.1
20260905163326 70 75 5.0 9.0 0.00 0.00 0.00 81 1017.3
20260905163052 70 59 4.0 9.0 0.00 0.00 0.00 84 1017.2
20260905162547 70 114 4.0 7.0 0.00 0.00 0.00 81 1017.1
20260905161822 70 63 4.0 9.0 0.00 0.00 0.00 83 1017.2
20260905161321 70 63 6.0 10.0 0.00 0.00 0.00 81 1017.2
20260905160820 69 62 5.0 10.0 0.00 0.00 0.00 83 1017.1
20260905160320 70 35 6.0 9.0 0.00 0.00 0.00 83 1017.2
20260905160043 70 75 5.0 9.0 0.00 0.00 0.00 83 1017.2
20260905155320 71 83 3.0 7.0 0.00 0.00 0.00 84 1017.0
20260905154821 69 83 4.0 9.0 0.00 0.00 0.00 84 1016.9
20260905154318 69 82 6.0 9.0 0.00 0.00 0.00 83 1016.9
20260905154044 70 47 6.0 9.0 0.00 0.00 0.00 83 1016.9
20260905153318 70 63 4.0 7.0 0.00 0.00 0.00 83 1016.9
20260905152816 70 82 4.0 7.0 0.00 0.00 0.00 84 1016.9
20260905152314 70 83 4.0 9.0 0.00 0.00 0.00 84 1016.9
20260905151814 70 89 6.0 9.0 0.00 0.00 0.00 83 1016.8
20260905151314 70 100 4.0 9.0 0.00 0.00 0.00 84 1016.8
20260905150815 70 92 4.0 9.0 0.00 0.00 0.00 85 1016.7
20260905150313 69 51 4.0 11.0 0.00 0.00 0.00 84 1016.7
20260905145813 69 95 6.0 11.0 0.00 0.00 0.00 85 1016.5
20260905145312 69 97 6.0 10.0 0.00 0.00 0.00 85 1016.6
20260905144807 69 92 5.0 9.0 0.00 0.00 0.00 86 1016.6
20260905144307 70 79 6.0 9.0 0.00 0.00 0.00 85 1016.6
20260905143804 70 45 4.0 10.0 0.00 0.00 0.00 86 1016.5
20260905143304 69 92 5.0 10.0 0.00 0.00 0.00 85 1016.6
20260905142306 69 80 4.0 10.0 0.00 0.00 0.00 85 1016.4
20260905141808 69 135 3.0 10.0 0.00 0.00 0.00 86 1016.4
20260905141542 69 73 5.0 10.0 0.00 0.00 0.00 85 1016.2
20260905140805 69 80 4.0 10.0 0.00 0.00 0.00 86 1016.3
20260905140303 69 62 4.0 9.0 0.00 0.00 0.00 87 1016.3
20260905135804 69 78 5.0 9.0 0.00 0.00 0.00 86 1016.3
20260905135307 69 78 4.0 7.0 0.00 0.00 0.00 87 1016.3
20260905134818 68 89 4.0 7.0 0.00 0.00 0.00 88 1016.4
20260905134305 68 73 5.0 7.0 0.00 0.00 0.00 88 1016.4
20260905133802 68 100 4.0 6.0 0.00 0.00 0.00 88 1016.4
20260905133303 68 89 3.0 9.0 0.00 0.00 0.00 88 1016.3
20260905132800 68 44 3.0 9.0 0.00 0.00 0.00 89 1016.3
20260905132300 68 86 3.0 7.0 0.00 0.00 0.00 90 1016.3
20260905131258 68 76 3.0 6.0 0.00 0.00 0.00 92 1016.4
20260905130759 67 110 3.0 6.0 0.00 0.00 0.00 93 1016.2
20260905130523 67 49 3.0 6.0 0.00 0.00 0.00 95 1016.2
20260905125757 67 69 3.0 6.0 0.00 0.00 0.00 95 1016.2
20260905125530 67 92 2.0 5.0 0.00 0.00 0.00 97 1016.2
20260905124755 66 92 3.0 5.0 0.00 0.00 0.00 98 1016.1
20260905124258 65 63 3.0 5.0 0.00 0.00 0.00 99 1016.1
20260905123755 65 75 1.0 5.0 0.00 0.00 0.00 99 1016.0
20260905123256 64 116 1.0 5.0 0.00 0.00 0.00 99 1016.1
20260905122754 63 63 3.0 5.0 0.00 0.00 0.00 99 1016.1
20260905122257 62 58 1.0 5.0 0.00 0.00 0.00 99 1016.1
20260905121753 60 63 1.0 4.0 0.00 0.00 0.00 99 1016.0
20260905121254 59 54 1.0 2.0 0.00 0.00 0.00 98 1016.0
20260905120752 58 290 0.0 0.0 0.00 0.00 0.00 98 1016.0
20260905120251 58 274 0.0 0.0 0.00 0.00 0.00 98 1015.9
20260905115750 57 272 0.0 0.0 0.00 0.01 0.00 98 1015.9
20260905115252 57 272 0.0 0.0 0.00 0.01 0.00 98 1015.9
20260905114751 56 272 0.0 1.0 0.00 0.03 0.00 98 1015.8
20260905114251 56 272 0.0 2.0 0.00 0.03 0.00 98 1015.8
20260905113751 56 272 0.0 2.0 0.00 0.03 0.00 98 1015.8
20260905113250 56 272 0.0 1.0 0.00 0.03 0.00 98 1015.8
20260905112750 56 272 0.0 2.0 0.00 0.03 0.00 98 1015.9
20260905112249 56 282 0.0 2.0 0.00 0.03 0.00 98 1015.8
20260905111749 56 281 0.0 1.0 0.00 0.03 0.00 98 1015.8
20260905111249 56 282 0.0 2.0 0.00 0.03 0.00 98 1015.7
20260905110748 56 282 0.0 2.0 0.00 0.03 0.00 98 1015.7
20260905110515 56 282 0.0 2.0 0.00 0.03 0.00 98 1015.7
20260905105747 56 282 1.0 2.0 0.00 0.03 0.00 98 1015.6
20260905105248 56 285 1.0 2.0 0.00 0.03 0.00 98 1015.6
20260905104747 56 286 1.0 2.0 0.00 0.03 0.00 98 1015.5
20260905104247 57 272 0.0 2.0 0.00 0.03 0.00 98 1015.4
20260905103748 57 274 1.0 2.0 0.00 0.03 0.00 98 1015.5
20260905103246 57 274 0.0 1.0 0.00 0.03 0.00 98 1015.4
20260905102746 57 274 0.0 2.0 0.00 0.03 0.00 98 1015.4
20260905102246 57 275 1.0 2.0 0.00 0.03 0.00 98 1015.4
20260905101747 57 274 1.0 2.0 0.00 0.03 0.00 98 1015.3
20260905101245 57 272 1.0 2.0 0.00 0.03 0.00 98 1015.4
20260905100746 57 271 0.0 1.0 0.00 0.03 0.00 98 1015.4
20260905100243 58 271 0.0 2.0 0.00 0.03 0.00 98 1015.5
20260905095739 58 271 0.0 2.0 0.00 0.03 0.00 98 1015.4
20260905095239 58 272 1.0 2.0 0.00 0.03 0.00 98 1015.3
20260905094742 58 272 1.0 2.0 0.00 0.03 0.00 98 1015.3
20260905094239 58 271 1.0 3.0 0.00 0.03 0.00 98 1015.2
20260905093740 58 274 2.0 3.0 0.00 0.03 0.00 98 1015.2
20260905093238 58 282 2.0 3.0 0.00 0.03 0.00 98 1015.1
20260905092738 58 276 1.0 3.0 0.00 0.03 0.00 98 1015.2
20260905092236 58 283 2.0 3.0 0.00 0.03 0.00 98 1015.1
20260905091735 58 269 2.0 3.0 0.00 0.03 0.00 98 1015.2
20260905091234 58 278 1.0 2.0 0.00 0.03 0.00 98 1015.2
20260905091000 58 278 1.0 3.0 0.00 0.03 0.00 98 1014.9
20260905090234 58 278 1.0 3.0 0.00 0.03 0.00 98 1014.9
20260905090006 58 279 1.0 2.0 0.00 0.03 0.00 98 1015.1
20260905085233 58 268 1.0 2.0 0.00 0.03 0.00 98 1015.1
20260905084736 58 282 0.0 2.0 0.00 0.03 0.00 98 1014.9
20260905084233 58 282 1.0 2.0 0.00 0.03 0.00 98 1015.1
20260905083732 58 282 1.0 2.0 0.00 0.03 0.00 98 1015.1
20260905083233 58 282 1.0 2.0 0.00 0.03 0.00 97 1015.1
20260905082732 58 282 0.0 2.0 0.00 0.03 0.00 97 1015.1
20260905082233 58 282 1.0 2.0 0.00 0.03 0.00 97 1014.9
20260905082004 58 282 1.0 2.0 0.00 0.03 0.00 97 1014.9
20260905081232 58 282 1.0 2.0 0.00 0.03 0.00 97 1014.9
20260905080733 58 282 0.0 0.0 0.00 0.03 0.00 98 1014.9
20260905080236 58 282 0.0 0.0 0.00 0.03 0.00 97 1014.9
20260905075732 58 282 0.0 1.0 0.00 0.03 0.00 97 1014.9
20260905075233 58 282 0.0 2.0 0.00 0.03 0.00 97 1014.8
20260905074732 59 282 1.0 2.0 0.00 0.03 0.00 97 1014.8
20260905074234 59 279 1.0 2.0 0.00 0.03 0.00 97 1014.8
20260905074007 59 279 0.0 2.0 0.00 0.03 0.00 98 1014.8
20260905073233 59 279 2.0 2.0 0.00 0.03 0.00 97 1014.8
20260905072732 59 281 2.0 2.0 0.00 0.03 0.00 97 1014.8
20260905072233 59 251 1.0 2.0 0.00 0.03 0.00 97 1014.8
20260905071732 59 251 1.0 2.0 0.00 0.03 0.00 97 1014.8
20260905071459 59 251 1.0 2.0 0.00 0.03 0.00 97 1014.7
20260905070731 59 251 0.0 1.0 0.00 0.03 0.00 97 1014.7
20260905070233 59 251 0.0 2.0 0.00 0.03 0.00 97 1014.6
20260905065731 60 251 1.0 2.0 0.00 0.03 0.00 97 1014.7
20260905065231 60 251 1.0 2.0 0.00 0.03 0.00 97 1014.7
20260905064732 60 251 1.0 2.0 0.00 0.03 0.00 97 1014.7
20260905064233 60 274 0.0 1.0 0.00 0.03 0.00 97 1014.6
20260905063731 60 276 1.0 1.0 0.00 0.03 0.00 97 1014.6
20260905063231 60 276 1.0 2.0 0.00 0.03 0.00 97 1014.7